Location: Newark
(37.7733°N, 97.7642°W)
Time: 18:27:05
(UTC+00:00)

ISS - Pass Details

Date: 30 July 2019
Orbit: 410 x 421 km, 51.6° (Epoch: 25 August)

Event Time Altitude Azimuth Distance (km) Brightness Sun altitude
Rises 03:37:00 0° 320° (NW) 2,372 1.7 -19.5°
Reaches altitude 10° 03:39:47 10° 344° (NNW) 1,503 -0.1 -19.9°
Maximum altitude 03:41:51 15° 22° (NNE) 1,224 -1.2 -20.1°
Enters shadow 03:43:01 13° 46° (NE) 1,317 -1.3 -20.3°
